DW3765 Weather Reports


Display with metric or nautical units.
time (UTC)temp
F
wind
direction
speed
MPH
gust
MPH
rain 1hr
in
rain 24hr
in
rain mn
in
humidity
%
barometer
mb
20260831231201 95 114 6.0 10.0 0.00 0.00 0.00 43 1013.7
20260831230713 95 144 6.0 12.0 0.00 0.00 0.00 42 1013.7
20260831230224 95 129 7.0 18.0 0.00 0.00 0.00 42 1013.8
20260831225151 95 157 4.0 9.0 0.00 0.00 0.00 44 1013.7
20260831224721 95 128 1.0 11.0 0.00 0.00 0.00 44 1013.8
20260831224129 95 202 5.0 12.0 0.00 0.00 0.00 44 1013.9
20260831223641 94 175 6.0 11.0 0.00 0.00 0.00 45 1013.9
20260831222632 94 123 6.0 10.0 0.00 0.00 0.00 44 1014.0
20260831222143 95 148 4.0 10.0 0.00 0.00 0.00 44 1014.1
20260831221138 96 134 6.0 11.0 0.00 0.00 0.00 43 1014.1
20260831220650 96 117 5.0 9.0 0.00 0.00 0.00 43 1014.1
20260831215633 96 126 7.0 12.0 0.00 0.00 0.00 42 1014.2
20260831215148 96 172 7.0 10.0 0.00 0.00 0.00 43 1014.3
20260831214714 96 106 5.0 9.0 0.00 0.00 0.00 43 1014.4
20260831214131 96 213 3.0 12.0 0.00 0.00 0.00 44 1014.4
20260831213647 95 119 5.0 12.0 0.00 0.00 0.00 43 1014.4
20260831212631 94 148 4.0 8.0 0.00 0.00 0.00 45 1014.6
20260831212148 95 151 4.0 11.0 0.00 0.00 0.00 44 1014.6
20260831211712 95 169 7.0 11.0 0.00 0.00 0.00 45 1014.7
20260831211222 95 96 5.0 12.0 0.00 0.00 0.00 45 1014.8
20260831210744 95 123 6.0 12.0 0.00 0.00 0.00 46 1014.8
20260831210135 95 188 3.0 9.0 0.00 0.00 0.00 46 1014.9
20260831205649 95 145 5.0 9.0 0.00 0.00 0.00 45 1015.0
20260831205212 95 186 3.0 10.0 0.00 0.00 0.00 44 1015.0
20260831204709 94 159 6.0 12.0 0.00 0.00 0.00 46 1015.2
20260831204221 94 81 5.0 12.0 0.00 0.00 0.00 47 1015.3
20260831203630 94 83 7.0 12.0 0.00 0.00 0.00 46 1015.5
20260831203158 94 89 8.0 14.0 0.00 0.00 0.00 45 1015.6
20260831202649 94 105 9.0 14.0 0.00 0.00 0.00 46 1015.7
20260831201723 94 156 5.0 10.0 0.00 0.00 0.00 46 1015.7
20260831201217 94 134 5.0 9.0 0.00 0.00 0.00 47 1015.9
20260831200710 94 137 3.0 13.0 0.00 0.00 0.00 48 1015.9
20260831200222 94 146 7.0 15.0 0.00 0.00 0.00 47 1016.1
20260831195145 94 149 4.0 13.0 0.00 0.00 0.00 48 1016.2
20260831194643 93 58 7.0 13.0 0.00 0.00 0.00 49 1016.3
20260831194140 93 153 8.0 13.0 0.00 0.00 0.00 47 1016.4
20260831193636 93 130 4.0 12.0 0.00 0.00 0.00 49 1016.4
20260831193150 93 182 5.0 18.0 0.00 0.00 0.00 49 1016.5
20260831192654 94 113 7.0 18.0 0.00 0.00 0.00 48 1016.6
20260831192204 94 232 2.0 10.0 0.00 0.00 0.00 50 1016.6
20260831191640 93 80 4.0 9.0 0.00 0.00 0.00 50 1016.7
20260831191152 93 182 4.0 11.0 0.00 0.00 0.00 51 1016.8
20260831190719 93 97 7.0 16.0 0.00 0.00 0.00 50 1016.8
20260831190134 93 152 6.0 12.0 0.00 0.00 0.00 50 1016.8
20260831185655 93 144 6.0 12.0 0.00 0.00 0.00 50 1017.0
20260831185149 93 89 1.0 8.0 0.00 0.00 0.00 51 1016.9
20260831184704 92 85 3.0 8.0 0.00 0.00 0.00 53 1017.0
20260831184127 93 85 4.0 14.0 0.00 0.00 0.00 51 1017.1
20260831183644 92 170 6.0 14.0 0.00 0.00 0.00 52 1017.2
20260831182634 91 73 0.0 7.0 0.00 0.00 0.00 53 1017.1
20260831182145 91 102 3.0 8.0 0.00 0.00 0.00 54 1017.3
20260831181239 92 144 5.0 12.0 0.00 0.00 0.00 54 1017.4
20260831180737 92 137 1.0 12.0 0.00 0.00 0.00 57 1017.4
20260831180135 91 79 5.0 12.0 0.00 0.00 0.00 54 1017.5
20260831175650 91 144 7.0 12.0 0.00 0.00 0.00 53 1017.6
20260831174642 91 142 7.0 12.0 0.00 0.00 0.00 52 1017.8
20260831174157 90 166 5.0 9.0 0.00 0.00 0.00 57 1017.9
20260831173148 90 166 7.0 13.0 0.00 0.00 0.00 54 1017.9
20260831172645 90 178 8.0 13.0 0.00 0.00 0.00 55 1017.9
20260831171634 89 55 4.0 12.0 0.00 0.00 0.00 57 1017.9
20260831171148 89 101 7.0 12.0 0.00 0.00 0.00 59 1018.0
20260831170715 89 227 4.0 12.0 0.00 0.00 0.00 59 1018.1
20260831170126 89 55 4.0 12.0 0.00 0.00 0.00 60 1018.1
20260831165642 89 109 6.0 9.0 0.00 0.00 0.00 60 1018.1
20260831165201 89 111 6.0 9.0 0.00 0.00 0.00 60 1018.2
20260831164653 88 217 5.0 9.0 0.00 0.00 0.00 62 1018.1
20260831164222 88 121 5.0 9.0 0.00 0.00 0.00 64 1018.1
20260831163634 87 178 5.0 11.0 0.00 0.00 0.00 65 1018.1
20260831163148 87 128 7.0 13.0 0.00 0.00 0.00 64 1018.2
20260831162717 87 128 7.0 13.0 0.00 0.00 0.00 66 1018.1
20260831162210 87 138 2.0 12.0 0.00 0.00 0.00 67 1018.2
20260831161712 87 202 7.0 12.0 0.00 0.00 0.00 67 1018.1
20260831160641 87 88 5.0 11.0 0.00 0.00 0.00 69 1018.0
20260831160138 86 136 5.0 11.0 0.00 0.00 0.00 69 1018.1
20260831155703 86 139 4.0 12.0 0.00 0.00 0.00 69 1018.1
20260831155219 86 151 6.0 12.0 0.00 0.00 0.00 70 1018.0
20260831154643 85 192 4.0 12.0 0.00 0.00 0.00 72 1018.0
20260831154200 85 155 7.0 14.0 0.00 0.00 0.00 72 1017.9
20260831153721 85 130 7.0 13.0 0.00 0.00 0.00 73 1018.0
20260831152640 84 163 8.0 13.0 0.00 0.00 0.00 74 1017.9
20260831152238 84 156 6.0 13.0 0.00 0.00 0.00 76 1017.9
20260831151708 84 136 7.0 13.0 0.00 0.00 0.00 75 1017.9
20260831151202 83 78 5.0 12.0 0.00 0.00 0.00 77 1017.9
20260831150721 83 142 6.0 11.0 0.00 0.00 0.00 79 1017.9
20260831150212 82 153 4.0 10.0 0.00 0.00 0.00 80 1017.9
20260831145720 82 171 5.0 9.0 0.00 0.00 0.00 81 1017.8
20260831145224 82 188 5.0 9.0 0.00 0.00 0.00 82 1017.7
20260831144636 81 199 4.0 11.0 0.00 0.00 0.00 82 1017.7
20260831144149 81 217 4.0 11.0 0.00 0.00 0.00 82 1017.8
20260831143647 81 171 7.0 12.0 0.00 0.00 0.00 81 1017.8
20260831143203 81 190 8.0 11.0 0.00 0.00 0.00 82 1017.7
20260831142704 81 153 6.0 11.0 0.00 0.00 0.00 84 1017.7
20260831142215 81 149 5.0 11.0 0.00 0.00 0.00 84 1017.7
20260831141140 80 140 4.0 8.0 0.00 0.00 0.00 88 1017.7
20260831140657 80 159 4.0 10.0 0.00 0.00 0.00 89 1017.7
20260831140129 79 128 5.0 10.0 0.00 0.00 0.00 90 1017.6
20260831135137 79 116 4.0 7.0 0.00 0.00 0.00 91 1017.6
20260831134655 78 154 2.0 7.0 0.00 0.00 0.00 91 1017.6
20260831134211 78 160 4.0 6.0 0.00 0.00 0.00 92 1017.5
20260831133715 78 169 2.0 7.0 0.00 0.00 0.00 92 1017.6
20260831133129 78 124 3.0 6.0 0.00 0.00 0.00 93 1017.5
20260831132642 78 170 0.0 0.0 0.00 0.00 0.00 93 1017.4
20260831132202 78 178 0.0 0.0 0.00 0.00 0.00 93 1017.3
20260831131657 77 178 0.0 0.0 0.00 0.00 0.00 93 1017.3
20260831130648 77 140 0.0 0.0 0.00 0.00 0.00 94 1017.3
20260831130203 77 140 0.0 0.0 0.00 0.00 0.00 94 1017.2
20260831125707 77 140 0.0 0.0 0.00 0.00 0.00 94 1017.3
20260831125207 77 140 0.0 0.0 0.00 0.00 0.00 94 1017.3
20260831124722 76 140 0.0 0.0 0.00 0.00 0.00 94 1017.2
20260831124147 76 140 0.0 1.0 0.00 0.00 0.00 93 1017.0
20260831123704 76 140 0.0 5.0 0.00 0.00 0.00 93 1016.9
20260831123143 76 127 2.0 5.0 0.00 0.00 0.00 93 1017.0
20260831122709 76 163 1.0 2.0 0.00 0.00 0.00 93 1016.8
20260831122201 76 166 0.0 0.0 0.00 0.00 0.00 93 1016.7
20260831121715 76 171 0.0 0.0 0.00 0.00 0.00 93 1016.8
20260831121134 76 171 0.0 0.0 0.00 0.00 0.00 93 1016.7
20260831120630 76 171 0.0 0.0 0.00 0.00 0.00 93 1016.7
20260831120149 76 171 0.0 0.0 0.00 0.00 0.00 93 1016.7
20260831115718 76 171 0.0 0.0 0.00 0.00 0.00 92 1016.6
20260831115131 76 171 0.0 0.0 0.00 0.00 0.00 92 1016.6
20260831114646 76 171 0.0 0.0 0.00 0.00 0.00 92 1016.5
20260831114201 76 171 0.0 2.0 0.00 0.00 0.00 92 1016.6
20260831113654 76 171 1.0 2.0 0.00 0.00 0.00 92 1016.5
20260831113155 77 171 1.0 2.0 0.00 0.00 0.00 92 1016.6
20260831112224 77 171 0.0 2.0 0.00 0.00 0.00 92 1016.6
20260831111659 77 171 0.0 4.0 0.00 0.00 0.00 92 1016.6
20260831111155 77 171 1.0 4.0 0.00 0.00 0.00 92 1016.6
20260831110705 77 171 1.0 4.0 0.00 0.00 0.00 92 1016.6
20260831110151 77 171 1.0 3.0 0.00 0.00 0.00 92 1016.6
20260831105648 77 171 1.0 4.0 0.00 0.00 0.00 91 1016.6
20260831105200 77 171 0.0 5.0 0.00 0.00 0.00 91 1016.7
20260831104705 77 171 1.0 5.0 0.00 0.00 0.00 91 1016.7
20260831104217 77 170 0.0 2.0 0.00 0.00 0.00 91 1016.9
20260831103629 77 170 0.0 2.0 0.00 0.00 0.00 91 1016.8
20260831103155 77 170 0.0 4.0 0.00 0.00 0.00 91 1016.7
20260831102657 77 170 1.0 5.0 0.00 0.00 0.00 91 1016.8
20260831102210 77 170 2.0 5.0 0.00 0.00 0.00 91 1016.7
20260831101720 77 171 0.0 6.0 0.00 0.00 0.00 91 1016.8
20260831101232 77 171 2.0 8.0 0.00 0.00 0.00 91 1016.8
20260831100710 77 153 2.0 8.0 0.00 0.00 0.00 90 1016.9
20260831100210 78 165 4.0 8.0 0.00 0.00 0.00 90 1016.8
20260831095623 78 159 3.0 8.0 0.00 0.00 0.00 90 1016.7
20260831095143 78 123 4.0 8.0 0.00 0.00 0.00 90 1016.8
20260831094711 78 140 4.0 10.0 0.00 0.00 0.00 90 1016.7
20260831094203 78 148 4.0 10.0 0.00 0.00 0.00 90 1016.7
20260831093724 78 140 4.0 7.0 0.00 0.00 0.00 90 1016.7
20260831093219 78 145 3.0 7.0 0.00 0.00 0.00 90 1016.7
20260831092152 78 140 3.0 7.0 0.00 0.00 0.00 89 1016.7
20260831091127 78 181 3.0 6.0 0.00 0.00 0.00 89 1016.8
20260831090651 78 167 3.0 6.0 0.00 0.00 0.00 89 1016.8
20260831090148 77 159 2.0 6.0 0.00 0.00 0.00 89 1016.7
20260831085708 77 146 3.0 6.0 0.00 0.00 0.00 89 1016.7
20260831085203 77 142 1.0 6.0 0.00 0.00 0.00 88 1016.7
20260831084702 77 156 3.0 5.0 0.00 0.00 0.00 88 1016.7
20260831084156 77 159 2.0 5.0 0.00 0.00 0.00 88 1016.7
20260831083717 77 161 2.0 5.0 0.00 0.00 0.00 88 1016.7
20260831083229 77 161 1.0 5.0 0.00 0.00 0.00 88 1016.8
20260831082700 77 157 1.0 6.0 0.00 0.00 0.00 88 1016.9
20260831082156 77 145 2.0 6.0 0.00 0.00 0.00 87 1016.8
20260831081649 77 118 3.0 6.0 0.00 0.00 0.00 87 1016.9
20260831081127 77 157 1.0 4.0 0.00 0.00 0.00 87 1016.8
20260831080623 77 140 2.0 3.0 0.00 0.00 0.00 86 1016.9
20260831080149 77 140 2.0 4.0 0.00 0.00 0.00 86 1016.8
20260831075649 77 140 1.0 4.0 0.00 0.00 0.00 86 1016.9
20260831075201 78 140 1.0 5.0 0.00 0.00 0.00 85 1016.9
20260831074722 78 138 2.0 6.0 0.00 0.00 0.00 85 1016.9
20260831074136 78 128 3.0 6.0 0.00 0.00 0.00 85 1016.9
20260831073659 78 140 2.0 7.0 0.00 0.00 0.00 84 1016.8
20260831073208 78 138 4.0 7.0 0.00 0.00 0.00 84 1016.8
20260831072702 78 130 3.0 7.0 0.00 0.00 0.00 83 1016.8
20260831072217 78 123 2.0 7.0 0.00 0.00 0.00 83 1016.7
20260831071720 78 125 3.0 7.0 0.00 0.00 0.00 83 1016.8
20260831071129 79 170 4.0 7.0 0.00 0.00 0.00 82 1016.8
20260831070652 79 128 2.0 8.0 0.00 0.00 0.00 82 1016.8
20260831070151 79 142 5.0 8.0 0.00 0.00 0.00 82 1016.9
20260831065628 79 141 4.0 8.0 0.00 0.00 0.00 81 1016.9
20260831065136 79 140 5.0 8.0 0.00 0.00 0.00 81 1017.0
20260831064642 79 164 1.0 6.0 0.00 0.00 0.00 80 1017.1
20260831064150 79 129 2.0 8.0 0.00 0.00 0.00 80 1017.1
20260831063629 79 148 2.0 8.0 0.00 0.00 0.00 79 1017.2
20260831063133 80 147 5.0 10.0 0.00 0.00 0.00 79 1017.2
20260831062701 80 184 5.0 13.0 0.00 0.00 0.00 78 1017.1
20260831062204 80 134 4.0 13.0 0.00 0.00 0.00 78 1017.1
20260831061631 80 138 6.0 11.0 0.00 0.00 0.00 77 1017.2
20260831061134 80 142 5.0 11.0 0.00 0.00 0.00 76 1017.0
20260831060633 80 140 5.0 10.0 0.00 0.00 0.00 76 1017.1
20260831060208 80 140 5.0 10.0 0.00 0.00 0.00 75 1017.0
20260831055625 80 175 6.0 11.0 0.00 0.00 0.00 75 1017.0
20260831055126 81 150 5.0 11.0 0.00 0.00 0.00 74 1017.0
20260831054634 81 142 6.0 11.0 0.00 0.00 0.00 74 1016.9
20260831054136 81 123 6.0 10.0 0.00 0.00 0.00 73 1016.9
20260831053702 81 157 5.0 11.0 0.00 0.00 0.00 73 1016.8
20260831053148 81 134 5.0 11.0 0.00 0.00 0.00 73 1016.7
20260831052627 81 126 5.0 9.0 0.00 0.00 0.00 72 1016.9
20260831052131 81 131 5.0 12.0 0.00 0.00 0.00 71 1016.7
20260831051638 82 136 7.0 12.0 0.00 0.00 0.00 71 1016.7
20260831051200 82 130 6.0 9.0 0.00 0.00 0.00 71 1016.8
20260831050643 82 124 5.0 9.0 0.00 0.00 0.00 70 1016.7
20260831050150 82 143 5.0 10.0 0.00 0.00 0.00 69 1016.7
20260831045658 82 123 5.0 9.0 0.00 0.00 0.00 69 1016.7
20260831045211 83 132 5.0 12.0 0.00 0.00 0.00 68 1016.6
20260831044627 83 153 7.0 12.0 0.00 0.00 0.00 68 1016.5
20260831044146 83 123 8.0 11.0 0.00 0.00 0.00 68 1016.4
20260831043649 83 140 6.0 11.0 0.00 0.00 0.00 67 1016.4
20260831043335 83 170 7.0 11.0 0.00 0.00 0.00 67 1016.4
20260831042634 83 142 4.0 10.0 0.00 0.00 0.00 66 1016.4
20260831042158 84 142 5.0 10.0 0.00 0.00 0.00 66 1016.4
20260831041710 84 137 5.0 12.0 0.00 0.00 0.00 65 1016.3
20260831040635 84 98 5.0 10.0 0.00 0.00 0.00 64 1016.2
20260831040149 84 119 6.0 14.0 0.00 0.00 0.00 64 1016.2
20260831035144 85 108 4.0 12.0 0.00 0.00 0.00 63 1016.0
20260831034659 85 86 6.0 12.0 0.00 0.00 0.00 63 1016.1
20260831034159 85 121 7.0 12.0 0.00 0.00 0.00 63 1016.0
20260831033711 85 97 6.0 11.0 0.00 0.00 0.00 62 1015.9
20260831032641 86 113 6.0 9.0 0.00 0.00 0.00 62 1015.9
20260831032154 86 134 4.0 11.0 0.00 0.00 0.00 62 1015.9
20260831031634 86 142 5.0 14.0 0.00 0.00 0.00 61 1015.9
20260831031158 86 105 6.0 14.0 0.00 0.00 0.00 61 1015.9
20260831030218 86 152 9.0 14.0 0.00 0.00 0.00 61 1015.6
20260831025712 86 128 4.0 8.0 0.00 0.00 0.00 61 1015.5
20260831025125 86 140 5.0 9.0 0.00 0.00 0.00 61 1015.4
20260831024643 87 122 6.0 12.0 0.00 0.00 0.00 61 1015.2
20260831023719 87 135 5.0 10.0 0.00 0.00 0.00 61 1015.0
20260831023152 87 119 6.0 12.0 0.00 0.00 0.00 60 1014.8
20260831022653 87 122 5.0 12.0 0.00 0.00 0.00 60 1014.8
20260831022201 87 162 6.0 11.0 0.00 0.00 0.00 60 1014.6
20260831021652 87 144 6.0 11.0 0.00 0.00 0.00 60 1014.4
20260831021149 87 163 4.0 11.0 0.00 0.00 0.00 60 1014.4
20260831020220 87 132 7.0 13.0 0.00 0.00 0.00 59 1014.3
20260831015630 88 94 4.0 8.0 0.00 0.00 0.00 58 1014.3
20260831015219 88 109 5.0 9.0 0.00 0.00 0.00 58 1014.3
20260831014731 88 103 4.0 10.0 0.00 0.00 0.00 57 1014.2
20260831014206 88 96 5.0 14.0 0.00 0.00 0.00 57 1014.2
20260831013702 88 132 7.0 16.0 0.00 0.00 0.00 56 1014.1
20260831013222 89 122 8.0 16.0 0.00 0.00 0.00 56 1014.2
20260831012739 89 141 6.0 11.0 0.00 0.00 0.00 56 1014.0
20260831012141 89 126 5.0 11.0 0.00 0.00 0.00 55 1014.0
20260831011652 90 111 4.0 13.0 0.00 0.00 0.00 54 1013.9
20260831011205 90 135 6.0 13.0 0.00 0.00 0.00 53 1014.0
20260831010623 91 137 6.0 13.0 0.00 0.00 0.00 52 1013.9
20260831010240 91 142 7.0 12.0 0.00 0.00 0.00 50 1013.9
20260831005631 91 134 6.0 10.0 0.00 0.00 0.00 49 1013.7
20260831005159 92 121 4.0 9.0 0.00 0.00 0.00 48 1013.7
20260831004658 92 90 5.0 8.0 0.00 0.00 0.00 47 1013.6
20260831004211 93 89 3.0 7.0 0.00 0.00 0.00 47 1013.5
20260831003630 93 118 4.0 10.0 0.00 0.00 0.00 47 1013.4
20260831003146 93 95 4.0 10.0 0.00 0.00 0.00 46 1013.4
20260831002709 94 110 3.0 9.0 0.00 0.00 0.00 46 1013.4
20260831002124 94 115 1.0 6.0 0.00 0.00 0.00 47 1013.5
20260831001643 94 83 3.0 6.0 0.00 0.00 0.00 47 1013.6
20260831001207 94 93 4.0 9.0 0.00 0.00 0.00 46 1013.5
20260831000721 94 64 6.0 9.0 0.00 0.00 0.00 46 1013.5
20260831000137 94 90 5.0 9.0 0.00 0.00 0.00 45 1013.5
20260830235652 94 72 6.0 9.0 0.00 0.00 0.00 45 1013.5
20260830235201 94 111 4.0 11.0 0.00 0.00 0.00 45 1013.5
20260830234730 94 86 5.0 11.0 0.00 0.00 0.00 45 1013.5
20260830234123 95 107 7.0 11.0 0.00 0.00 0.00 44 1013.6
20260830233650 95 81 4.0 9.0 0.00 0.00 0.00 43 1013.6
20260830233207 95 81 6.0 9.0 0.00 0.00 0.00 43 1013.5
20260830232649 95 80 4.0 11.0 0.00 0.00 0.00 44 1013.6
20260830232142 95 132 4.0 12.0 0.00 0.00 0.00 44 1013.5
20260830231721 95 123 6.0 12.0 0.00 0.00 0.00 43 1013.5